Regional Weather Roundup
Issued by NWS

Home | Current Version | Previous Version | Text Only | Print | Product List | Glossary Off
Versions: 1 2 3 4 5 6 7 8 9 10 11 12 13 14 15 16 17 18 19 20 21 22 23 24 25 26 27 28 29 30 31 32 33 34 35 36 37 38 39 40 41 42 43 44 45 46 47 48 49 50

000
ASUS43 KIND 271859
RWRIN

WEATHER ROUNDUP FOR INDIANA
NATIONAL WEATHER SERVICE INDIANAPOLIS IN
300 PM EDT MON APR 27 2015

NOTE: "FAIR" INDICATES FEW OR NO CLOUDS BELOW 12,000 FEET WITH NO
SIGNIFICANT WEATHER AND/OR OBSTRUCTIONS TO VISIBILITY.

* - STATION DOES NOT REPORT WEATHER SUCH AS PRECIPITATION OR FOG.

+ - STATION NOT QUALITY CONTROLLED BY THE NATIONAL WEATHER SERVICE.
    USE DATA WITH CAUTION...ESPECIALLY DEWPOINT AND RELATIVE
    HUMIDITY OBSERVATIONS.

INZ001>003-010>013-019-020-272000-
NORTHWEST INDIANA

CITY           SKY/WX    TMP DP  RH WIND       PRES   REMARKS
GARY /AIRPORT/ MOSUNNY   52  32  46 N14G30    30.13S

$$

LMZ046-743>745-272000-
SOUTHERN LAKE MICHIGAN

STATION/POSITION TIME  TEMP    WIND        PRES    WAVE
                       AIR SEA DIR/SP/G            HT
                 (UTC) (F)     (DEG/KT/KT) (MB)    (FT)
BURNS HARBOR     1800   43     360/ 16/ 19 1020.7S
MICHIGAN CITY    1800   42     330/ 20/ 23   N/A
5NW MICH CITY    1800   41 45  360/ 14/ 19   N/A     4

$$

INZ004-005-014>016-021>024-272000-
NORTH CENTRAL INDIANA

CITY           SKY/WX    TMP DP  RH WIND       PRES   REMARKS
GOSHEN         CLOUDY    52  35  52 N12       30.04S
SOUTH BEND     PTSUNNY   53  36  52 NW15      30.08S

$$

INZ006>009-017-018-025>027-272000-
NORTHEAST INDIANA

CITY           SKY/WX    TMP DP  RH WIND       PRES   REMARKS
ANGOLA *+      CLOUDY    48  36  61 NE8       30.03S
FORT WAYNE     CLOUDY    53  37  54 N13       30.02S

$$

INZ028-029-035-036-043>045-051>053-272000-
WEST CENTRAL INDIANA

CITY           SKY/WX    TMP DP  RH WIND       PRES   REMARKS
CRAWFORDSVL +  CLOUDY    53  31  42 N18       30.06S
GREENCASTLE +  PTSUNNY   54  32  43 N17G23    30.06R
LAFAYETTE      PTSUNNY   55  37  50 N20       30.07R
TERRE HAUTE    PTSUNNY   59  40  49 NW15      30.05F

$$

INZ030>032-037>040-046>048-054>057-064-065-272000-
CENTRAL INDIANA

CITY           SKY/WX    TMP DP  RH WIND       PRES   REMARKS
GREENWOOD *+   CLOUDY    57  34  41 N14G22    30.03S
INDIANAPOLIS   PTSUNNY   55  36  48 N15       30.03S
-EAGLE CREEK   CLOUDY    54  35  48 N14       30.03S
KOKOMO *+      CLOUDY    54  37  54 N15G21    30.03S
MT COMFORT *+  PTSUNNY   55  27  33 N15G21    30.03S
SHELBYVILLE    CLOUDY    59  40  49 NW17      30.01F

$$

INZ033-034-041-042-049-050-058-059-272000-
EAST CENTRAL INDIANA

CITY           SKY/WX    TMP DP  RH WIND       PRES   REMARKS
MUNCIE         CLOUDY    54  38  54 N10       30.02R

$$

INZ060-061-067>069-081>083-085>088-272000-
SOUTHWEST INDIANA

CITY           SKY/WX    TMP DP  RH WIND       PRES   REMARKS
EVANSVILLE     MOSUNNY   62  38  40 N10G21    30.02F
HUNTINGBURG *+ MOSUNNY   63  39  42 NW10      30.01F

$$

INZ062-063-066-070>080-084-089>092-272000-
SOUTH CENTRAL AND SOUTHEAST INDIANA

CITY           SKY/WX    TMP DP  RH WIND       PRES   REMARKS
BLOOMINGTON    MOSUNNY   60  39  45 N13       30.02S
MADISON *+     SUNNY     61  32  33 NW7G17    30.00F
SEYMOUR +      SUNNY     63  37  39 N12G18    29.99F

$$




USA.gov is the U.S. government's official web portal to all federal, state and local government web resources and services.